Flag for U.S.A. Weather past 2 weeks in Aurora, Illinois, U.S.A.

Now
67 °F

Mostly cloudy.


Feels Like: 67 °F
Forecast: 58 / 75 °F
Wind: 7 mph from Southeast

Location: Dupage Airport

Current Time: May 24, 2015 at 11:03:01 AM

Latest Report: May 24, 2015 at 9:52 AM


Visibility: 10 mi

Pressure: 30.14 "Hg

Humidity: 59%

Dew point: 52 °F

Location of AuroraLocation

Historic Weather in Aurora — Graph

°F

Aurora temperature yesterday

Maximum temperature yesterday: 80 °F (at 2:52 PM)
Minimum temperature yesterday: 43 °F (at 5:52 AM)
Average temperature yesterday: 64 °F

Past Weeks' High & Low Weather Summary

 TemperatureHumidityPressure
High81 °F (May 17, 5:52 PM)97% (May 10, 6:52 AM)30.49 "Hg (May 10, 6:52 AM)
Low36 °F (May 13, 4:52 AM)25% (May 23, 3:52 PM)29.78 "Hg (May 11, 1:52 PM)
Average58 °F69%30.10 "Hg
* Reported May 9 9:52 AM — May 24 9:52 AM, Aurora, Weather by CustomWeather, © 2015

Note: Actual official high and low records may vary slightly from our data, if they occured in-between our weather recording intervals... More about our weather records

Advertising

Aurora weather history for previous 24 hours

 ConditionsComfort  
Time TempWeatherWind HumidityBarometerVisibility
9:52 AM
Sun, May 24
67 °FMostly cloudy.7 mph59%30.14 "Hg10 mi
8:52 AM64 °FPartly sunny.6 mph68%30.15 "Hg10 mi
7:52 AM62 °FScattered clouds.No wind75%30.16 "Hg10 mi
6:52 AM61 °FOvercast.7 mph78%30.18 "Hg10 mi
5:52 AM62 °FLight rain. Passing clouds.12 mph65%30.18 "Hg10 mi
4:52 AM59 °FPassing clouds.No wind75%30.18 "Hg10 mi
3:52 AM60 °FClear.No wind69%30.18 "Hg10 mi
2:52 AM59 °FClear.No wind69%30.18 "Hg10 mi
1:52 AM61 °FClear.5 mph62%30.17 "Hg10 mi
12:52 AM63 °FClear.5 mph56%30.17 "Hg10 mi
11:52 PM
Sat, May 23
62 °FClear.6 mph58%30.18 "Hg10 mi
10:52 PM62 °FClear.3 mph60%30.19 "Hg10 mi
9:52 PM65 °FClear.3 mph54%30.18 "Hg10 mi
8:52 PM66 °FSunny.No wind52%30.16 "Hg10 mi
7:52 PM72 °FSunny.No wind41%30.16 "Hg10 mi
6:52 PM75 °FSunny.6 mph36%30.17 "Hg10 mi
5:52 PM80 °FSunny.6 mph25%30.18 "Hg10 mi
4:52 PM80 °FSunny.7 mph25%30.19 "Hg10 mi
3:52 PM80 °FSunny.9 mph25%30.22 "Hg10 mi
2:52 PM80 °FSunny.10 mph27%30.24 "Hg10 mi
1:52 PM78 °FSunny.8 mph29%30.26 "Hg10 mi
12:52 PM77 °FSunny.9 mph33%30.29 "Hg10 mi
11:52 AM74 °FSunny.12 mph36%30.30 "Hg10 mi
Weather by CustomWeather, © 2015

See weather overviewHow to use our weather pages